DAL888X PHNL-SCIP

Flight info

Callsign DAL888X
Flight time 7h 47m
Altitude 41000
Route PALAY3 LNY V7 KOA DCT 10N47 DCT 05N142W/N0486F450 DCT 00N38 DCT 05S132W DCT 10W27 DCT EKUDO DCT 20S118W 25S113W DCT VUGSU VUGSU2B
Aircraft GLEX/M-SBDE2E3FGHIJ4J5M1RWXY/LB1D1

Departure

Time 2026-04-10 12:49
Airport Daniel K. Inouye International Airport (PHNL)

Arrival

Time 2026-04-10 20:37
Airport Mataveri International Airport (SCIP)
Time Latitude Longitude Altitude Speed Heading
2026-04-10 12:39 21.31382 -157.92251 17 ft 0 kts 321°
2026-04-10 12:46 21.31387 -157.92259 17 ft 4 kts 297°
2026-04-10 12:46 21.31366 -157.92312 17 ft 12 kts 232°
2026-04-10 12:46 21.31298 -157.92407 16 ft 12 kts 233°
2026-04-10 12:46 21.31290 -157.92495 16 ft 13 kts 319°
2026-04-10 12:47 21.31288 -157.92593 16 ft 17 kts 274°
2026-04-10 12:47 21.31350 -157.92665 17 ft 15 kts 324°
2026-04-10 12:47 21.31411 -157.92684 18 ft 4 kts 48°
2026-04-10 12:47 21.31414 -157.92681 18 ft 0 kts 52°
2026-04-10 12:49 21.31442 -157.92642 19 ft 32 kts 51°
2026-04-10 12:49 21.31747 -157.92210 17 ft 114 kts 52°
2026-04-10 12:49 21.32365 -157.91342 117 ft 174 kts 56°
2026-04-10 12:49 21.33048 -157.90237 725 ft 189 kts 69°
2026-04-10 12:50 21.33288 -157.88887 1475 ft 192 kts 102°
2026-04-10 12:50 21.32768 -157.87587 2185 ft 199 kts 133°
2026-04-10 12:50 21.31689 -157.86662 2992 ft 205 kts 151°
2026-04-10 12:50 21.30426 -157.85993 3874 ft 209 kts 157°
2026-04-10 12:51 21.29079 -157.85345 4658 ft 219 kts 160°
2026-04-10 12:51 21.27581 -157.84728 5147 ft 244 kts 158°
2026-04-10 12:51 21.26151 -157.83561 5652 ft 268 kts 132°
2026-04-10 12:51 21.25244 -157.82159 7066 ft 230 kts 128°
2026-04-10 12:52 21.24230 -157.80657 7453 ft 259 kts 128°
2026-04-10 12:52 21.23223 -157.78962 8085 ft 275 kts 122°
2026-04-10 12:52 21.22272 -157.77249 9199 ft 267 kts 124°
2026-04-10 12:52 21.21259 -157.75556 9864 ft 277 kts 123°
2026-04-10 12:53 21.20239 -157.73655 9993 ft 309 kts 122°
2026-04-10 12:53 21.19106 -157.71705 10916 ft 307 kts 126°
2026-04-10 12:53 21.18026 -157.69792 11983 ft 300 kts 122°
2026-04-10 12:53 21.16953 -157.67928 12980 ft 294 kts 123°
2026-04-10 12:54 21.15861 -157.66058 13395 ft 309 kts 122°
2026-04-10 12:54 21.14706 -157.64083 13845 ft 323 kts 122°
2026-04-10 12:54 21.13500 -157.62025 14273 ft 338 kts 122°
2026-04-10 12:54 21.12239 -157.59872 14692 ft 353 kts 122°
2026-04-10 12:55 21.10953 -157.57656 15088 ft 367 kts 124°
2026-04-10 12:55 21.09625 -157.55344 15479 ft 383 kts 123°
2026-04-10 12:55 21.08211 -157.52845 15889 ft 398 kts 122°
2026-04-10 12:55 21.06775 -157.50304 16472 ft 407 kts 122°
2026-04-10 12:56 21.05301 -157.47694 17061 ft 416 kts 122°
2026-04-10 12:56 21.03790 -157.45022 17651 ft 424 kts 122°
2026-04-10 12:56 21.02247 -157.42295 18332 ft 430 kts 122°
2026-04-10 12:56 21.00711 -157.39580 19108 ft 432 kts 122°
2026-04-10 12:57 20.99166 -157.36851 19880 ft 434 kts 122°
2026-04-10 12:57 20.97605 -157.34096 20653 ft 435 kts 122°
2026-04-10 12:57 20.96038 -157.31332 21423 ft 436 kts 122°
2026-04-10 12:57 20.94463 -157.28554 21953 ft 442 kts 122°
2026-04-10 12:58 20.92866 -157.25738 22483 ft 448 kts 122°
2026-04-10 12:58 20.91248 -157.22886 23012 ft 454 kts 122°
2026-04-10 12:58 20.89591 -157.19970 23546 ft 460 kts 122°
2026-04-10 12:58 20.87903 -157.17001 24083 ft 465 kts 122°
2026-04-10 12:59 20.86203 -157.14011 24618 ft 470 kts 122°
2026-04-10 12:59 20.84484 -157.10990 25153 ft 474 kts 122°
2026-04-10 12:59 20.82766 -157.07971 25767 ft 477 kts 122°
2026-04-10 12:59 20.81038 -157.04939 26389 ft 478 kts 122°
2026-04-10 13:00 20.79280 -157.01854 27023 ft 479 kts 122°
2026-04-10 13:00 20.77504 -156.98742 27687 ft 479 kts 122°
2026-04-10 13:00 20.75298 -156.96008 28368 ft 475 kts 138°
2026-04-10 13:00 20.72754 -156.93601 29056 ft 473 kts 140°
2026-04-10 13:01 20.70173 -156.91266 29596 ft 475 kts 141°
2026-04-10 13:01 20.67563 -156.88925 30148 ft 476 kts 141°
2026-04-10 13:01 20.64963 -156.86596 30688 ft 477 kts 141°
2026-04-10 13:01 20.62468 -156.84363 31207 ft 477 kts 141°
2026-04-10 13:02 20.59905 -156.82071 31739 ft 477 kts 141°
2026-04-10 13:02 20.57331 -156.79771 32154 ft 480 kts 141°
2026-04-10 13:02 20.54726 -156.77442 32539 ft 483 kts 141°
2026-04-10 13:02 20.52110 -156.75106 32922 ft 486 kts 141°
2026-04-10 13:03 20.49540 -156.72812 33300 ft 489 kts 141°
2026-04-10 13:03 20.46871 -156.70430 33686 ft 492 kts 141°
2026-04-10 13:03 20.44180 -156.68031 34106 ft 494 kts 141°
2026-04-10 13:03 20.41474 -156.65619 34544 ft 495 kts 141°
2026-04-10 13:04 20.38741 -156.63184 35042 ft 494 kts 141°
2026-04-10 13:04 20.36008 -156.60750 35591 ft 492 kts 141°
2026-04-10 13:04 20.33296 -156.58337 36130 ft 490 kts 141°
2026-04-10 13:04 20.30592 -156.55931 36668 ft 487 kts 141°
2026-04-10 13:05 20.27899 -156.53537 37204 ft 484 kts 141°
2026-04-10 13:05 20.25237 -156.51170 37619 ft 483 kts 141°
2026-04-10 13:05 20.22551 -156.48785 37958 ft 483 kts 141°
2026-04-10 13:05 20.19880 -156.46413 38294 ft 483 kts 141°
2026-04-10 13:06 20.17195 -156.44030 38632 ft 483 kts 141°
2026-04-10 13:06 20.14540 -156.41679 38966 ft 482 kts 142°
2026-04-10 13:06 20.11884 -156.39362 39272 ft 482 kts 142°
2026-04-10 13:06 20.09225 -156.37045 39554 ft 482 kts 142°
2026-04-10 13:07 20.06572 -156.34734 39815 ft 482 kts 142°
2026-04-10 13:07 20.03936 -156.32441 40064 ft 483 kts 142°
2026-04-10 13:07 20.01270 -156.30121 40316 ft 482 kts 142°
2026-04-10 13:07 19.98611 -156.27809 40566 ft 482 kts 142°
2026-04-10 13:08 19.95971 -156.25515 40815 ft 481 kts 142°
2026-04-10 13:08 19.93335 -156.23225 40962 ft 484 kts 142°
2026-04-10 13:08 19.90636 -156.20882 40988 ft 489 kts 142°
2026-04-10 13:09 19.85171 -156.16140 40995 ft 504 kts 142°
2026-04-10 13:09 19.82416 -156.13751 40996 ft 512 kts 142°
2026-04-10 13:09 19.76732 -156.08827 40989 ft 520 kts 142°
2026-04-10 13:10 19.71156 -156.03937 40968 ft 514 kts 138°
2026-04-10 13:10 19.65831 -155.98610 40984 ft 510 kts 138°
2026-04-10 13:11 19.60532 -155.93325 40988 ft 513 kts 138°
2026-04-10 13:11 19.55214 -155.88026 40986 ft 514 kts 138°
2026-04-10 13:12 19.49904 -155.82740 40985 ft 513 kts 138°
2026-04-10 13:12 19.44577 -155.77443 40986 ft 513 kts 138°
2026-04-10 13:13 19.39218 -155.72118 40991 ft 513 kts 138°
2026-04-10 13:13 19.33883 -155.66823 41001 ft 513 kts 138°
2026-04-10 13:14 19.28532 -155.61516 41011 ft 513 kts 138°
2026-04-10 13:14 19.23214 -155.56248 41021 ft 513 kts 138°
2026-04-10 13:15 19.17863 -155.50951 41031 ft 513 kts 138°
2026-04-10 13:15 19.12566 -155.45713 41033 ft 513 kts 138°
2026-04-10 13:16 19.07221 -155.40432 41033 ft 513 kts 138°
2026-04-10 13:16 19.01862 -155.35141 41032 ft 513 kts 138°
2026-04-10 13:17 18.96511 -155.29861 41029 ft 515 kts 139°
2026-04-10 13:17 18.91148 -155.24577 41029 ft 517 kts 140°
2026-04-10 13:18 18.85732 -155.19249 41031 ft 520 kts 140°
2026-04-10 13:18 18.80316 -155.13925 41029 ft 519 kts 140°
2026-04-10 13:19 18.74908 -155.08612 41030 ft 518 kts 140°
2026-04-10 13:19 18.69674 -155.03474 41031 ft 519 kts 140°
2026-04-10 13:20 18.64362 -154.98265 41031 ft 521 kts 140°
2026-04-10 13:20 18.59050 -154.93060 41032 ft 523 kts 140°
2026-04-10 13:21 18.53650 -154.87774 41032 ft 525 kts 140°
2026-04-10 13:21 18.48131 -154.82376 41032 ft 527 kts 140°
2026-04-10 13:22 18.42645 -154.77014 41033 ft 529 kts 139°
2026-04-10 13:22 18.37135 -154.71635 41032 ft 528 kts 140°
2026-04-10 13:23 18.31654 -154.66288 41033 ft 528 kts 140°
2026-04-10 13:23 18.26113 -154.60888 41034 ft 528 kts 140°
2026-04-10 13:24 18.20599 -154.55519 41034 ft 528 kts 140°
2026-04-10 13:24 18.15068 -154.50139 41035 ft 528 kts 140°
2026-04-10 13:25 18.09517 -154.44744 41035 ft 528 kts 140°
2026-04-10 13:25 18.03990 -154.39378 41035 ft 528 kts 140°
2026-04-10 13:26 17.98661 -154.34208 41034 ft 528 kts 140°
2026-04-10 13:26 17.93158 -154.28874 41028 ft 528 kts 140°
2026-04-10 13:27 17.87711 -154.23598 41029 ft 528 kts 140°
2026-04-10 13:27 17.82236 -154.18301 41029 ft 528 kts 140°
2026-04-10 13:28 17.76693 -154.12942 41029 ft 528 kts 140°
2026-04-10 13:28 17.71134 -154.07573 41030 ft 528 kts 140°
2026-04-10 13:29 17.65662 -154.02292 41030 ft 528 kts 140°
2026-04-10 13:29 17.60225 -153.97050 41031 ft 528 kts 140°
2026-04-10 13:30 17.54775 -153.91799 41031 ft 528 kts 140°
2026-04-10 13:30 17.49314 -153.86542 41032 ft 528 kts 140°
2026-04-10 13:31 17.43879 -153.81316 41032 ft 528 kts 140°
2026-04-10 13:31 17.38444 -153.76093 41032 ft 528 kts 140°
2026-04-10 13:32 17.32986 -153.70852 41033 ft 528 kts 140°
2026-04-10 13:32 17.27527 -153.65616 41033 ft 528 kts 140°
2026-04-10 13:33 17.22021 -153.60338 41034 ft 528 kts 140°
2026-04-10 13:33 17.16521 -153.55071 41034 ft 528 kts 140°
2026-04-10 13:34 17.11027 -153.49814 41035 ft 528 kts 140°
2026-04-10 13:34 17.05509 -153.44539 41034 ft 525 kts 140°
2026-04-10 13:35 17.00005 -153.39282 41033 ft 520 kts 139°
2026-04-10 13:35 16.94551 -153.34075 41031 ft 518 kts 139°
2026-04-10 13:36 16.89120 -153.28894 41030 ft 518 kts 139°
2026-04-10 13:36 16.83656 -153.23688 41030 ft 519 kts 139°
2026-04-10 13:37 16.78169 -153.18464 41030 ft 519 kts 139°
2026-04-10 13:37 16.72794 -153.13350 41030 ft 518 kts 139°
2026-04-10 13:38 16.67368 -153.08191 41030 ft 519 kts 139°
2026-04-10 13:38 16.61893 -153.02991 41031 ft 520 kts 140°
2026-04-10 13:39 16.56394 -152.97771 41031 ft 521 kts 140°
2026-04-10 13:39 16.50888 -152.92550 41031 ft 522 kts 140°
2026-04-10 13:40 16.45391 -152.87342 41031 ft 523 kts 140°
2026-04-10 13:40 16.39853 -152.82098 41032 ft 523 kts 140°
2026-04-10 13:41 16.34329 -152.76872 41032 ft 523 kts 140°
2026-04-10 13:41 16.28832 -152.71676 41033 ft 523 kts 140°
2026-04-10 13:42 16.23327 -152.66476 41033 ft 523 kts 140°
2026-04-10 13:42 16.17826 -152.61284 41033 ft 523 kts 140°
2026-04-10 13:43 16.12319 -152.56091 41033 ft 523 kts 140°
2026-04-10 13:43 16.06795 -152.50886 41034 ft 523 kts 140°
2026-04-10 13:44 16.01287 -152.45699 41034 ft 523 kts 140°
2026-04-10 13:44 15.95752 -152.40492 41034 ft 523 kts 140°
2026-04-10 13:45 15.90232 -152.35302 41035 ft 523 kts 140°
2026-04-10 13:45 15.84735 -152.30139 41028 ft 523 kts 140°
2026-04-10 13:46 15.79191 -152.24934 41029 ft 523 kts 140°
2026-04-10 13:46 15.73684 -152.19770 41029 ft 523 kts 140°
2026-04-10 13:47 15.68163 -152.14596 41030 ft 523 kts 140°
2026-04-10 13:47 15.62630 -152.09414 41030 ft 523 kts 140°
2026-04-10 13:48 15.57079 -152.04219 41030 ft 523 kts 140°
2026-04-10 13:48 15.51525 -151.99026 41031 ft 523 kts 140°
2026-04-10 13:49 15.46003 -151.93866 41031 ft 523 kts 140°
2026-04-10 13:49 15.40613 -151.88834 41031 ft 523 kts 140°
2026-04-10 13:50 15.35067 -151.83659 41032 ft 523 kts 140°
2026-04-10 13:50 15.29518 -151.78485 41032 ft 523 kts 140°
2026-04-10 13:51 15.23959 -151.73307 41032 ft 523 kts 140°
2026-04-10 13:51 15.18380 -151.68113 41033 ft 523 kts 140°
2026-04-10 13:52 15.12866 -151.62984 41033 ft 523 kts 140°
2026-04-10 13:52 15.07334 -151.57841 41033 ft 523 kts 140°
2026-04-10 13:53 15.01767 -151.52670 41035 ft 523 kts 140°
2026-04-10 13:53 14.96238 -151.47539 41033 ft 520 kts 140°
2026-04-10 13:54 14.90767 -151.42464 41033 ft 517 kts 140°
2026-04-10 13:54 14.85275 -151.37374 41034 ft 516 kts 140°
2026-04-10 13:55 14.79793 -151.32296 41030 ft 516 kts 140°
2026-04-10 13:55 14.74339 -151.27248 41030 ft 516 kts 140°
2026-04-10 13:56 14.68903 -151.22220 41029 ft 516 kts 140°
2026-04-10 13:56 14.63474 -151.17202 41030 ft 516 kts 140°
2026-04-10 13:57 14.58254 -151.12381 41030 ft 516 kts 140°
2026-04-10 13:57 14.53222 -151.07736 41032 ft 516 kts 140°
2026-04-10 13:58 14.47899 -151.02825 41030 ft 515 kts 140°
2026-04-10 13:58 14.43078 -150.98381 41029 ft 514 kts 140°
2026-04-10 13:59 14.37700 -150.93427 41032 ft 514 kts 140°
2026-04-10 13:59 14.32298 -150.88454 41032 ft 514 kts 140°
2026-04-10 14:00 14.26905 -150.83492 41030 ft 514 kts 140°
2026-04-10 14:00 14.21504 -150.78527 41027 ft 514 kts 140°
2026-04-10 14:01 14.16104 -150.73565 41031 ft 514 kts 140°
2026-04-10 14:01 14.10895 -150.68783 41030 ft 514 kts 140°
2026-04-10 14:02 14.05471 -150.63806 41017 ft 514 kts 140°
2026-04-10 14:02 14.00064 -150.58847 41012 ft 514 kts 140°
2026-04-10 14:03 13.94660 -150.53895 41011 ft 514 kts 140°
2026-04-10 14:03 13.89264 -150.48954 41015 ft 514 kts 140°
2026-04-10 14:04 13.83820 -150.43972 41017 ft 515 kts 140°
2026-04-10 14:05 13.75709 -150.36555 41018 ft 515 kts 140°
2026-04-10 14:05 13.70297 -150.31610 41012 ft 514 kts 140°
2026-04-10 14:06 13.64886 -150.26669 41011 ft 514 kts 140°
2026-04-10 14:06 13.59464 -150.21722 41013 ft 514 kts 140°
2026-04-10 14:07 13.54036 -150.16771 41013 ft 514 kts 140°
2026-04-10 14:07 13.48587 -150.11805 41010 ft 514 kts 141°
2026-04-10 14:08 13.43191 -150.06890 41013 ft 514 kts 140°
2026-04-10 14:08 13.37769 -150.01956 41014 ft 514 kts 140°
2026-04-10 14:09 13.32327 -149.97005 41012 ft 514 kts 140°
2026-04-10 14:09 13.26896 -149.92067 41012 ft 514 kts 140°
2026-04-10 14:10 13.21442 -149.87113 41014 ft 514 kts 140°
2026-04-10 14:10 13.16019 -149.82188 41012 ft 514 kts 140°
2026-04-10 14:11 13.10593 -149.77265 41016 ft 514 kts 140°
2026-04-10 14:11 13.05215 -149.72391 41009 ft 506 kts 140°
2026-04-10 14:12 12.99997 -149.67664 41008 ft 498 kts 139°
2026-04-10 14:12 12.94746 -149.62908 41012 ft 498 kts 139°
2026-04-10 14:13 12.89442 -149.58102 41014 ft 501 kts 139°
2026-04-10 14:13 12.84126 -149.53293 41011 ft 501 kts 139°
2026-04-10 14:14 12.78852 -149.48524 41013 ft 500 kts 139°
2026-04-10 14:14 12.73542 -149.43726 41013 ft 500 kts 139°
2026-04-10 14:15 12.68265 -149.38960 41013 ft 501 kts 139°
2026-04-10 14:15 12.62962 -149.34173 41013 ft 500 kts 139°
2026-04-10 14:16 12.57680 -149.29408 41012 ft 500 kts 139°
2026-04-10 14:16 12.52375 -149.24626 41012 ft 500 kts 139°
2026-04-10 14:17 12.47073 -149.19848 41012 ft 500 kts 139°
2026-04-10 14:17 12.41801 -149.15100 41012 ft 500 kts 139°
2026-04-10 14:18 12.36511 -149.10339 41012 ft 500 kts 139°
2026-04-10 14:18 12.31236 -149.05594 41012 ft 500 kts 139°
2026-04-10 14:19 12.25957 -149.00850 41012 ft 500 kts 139°
2026-04-10 14:19 12.20639 -148.96073 41012 ft 500 kts 139°
2026-04-10 14:20 12.15313 -148.91289 41012 ft 502 kts 139°
2026-04-10 14:20 12.09994 -148.86513 41013 ft 503 kts 138°
2026-04-10 14:21 12.04662 -148.81730 41012 ft 505 kts 138°
2026-04-10 14:21 11.99340 -148.76958 41013 ft 506 kts 138°
2026-04-10 14:22 11.93992 -148.72166 41012 ft 506 kts 138°
2026-04-10 14:22 11.88623 -148.67358 41012 ft 505 kts 138°
2026-04-10 14:23 11.83282 -148.62578 41012 ft 506 kts 138°
2026-04-10 14:23 11.77903 -148.57765 41012 ft 506 kts 138°
2026-04-10 14:24 11.72518 -148.52951 41012 ft 506 kts 138°
2026-04-10 14:24 11.67174 -148.48175 41012 ft 506 kts 138°
2026-04-10 14:25 11.61795 -148.43371 41012 ft 506 kts 138°
2026-04-10 14:25 11.56444 -148.38594 41012 ft 506 kts 138°
2026-04-10 14:26 11.51090 -148.33817 41012 ft 506 kts 139°
2026-04-10 14:26 11.45718 -148.29027 41013 ft 506 kts 139°
2026-04-10 14:27 11.40341 -148.24234 41013 ft 506 kts 139°
2026-04-10 14:27 11.34966 -148.19447 41013 ft 506 kts 139°
2026-04-10 14:28 11.29599 -148.14668 41012 ft 506 kts 139°
2026-04-10 14:28 11.24207 -148.09871 41013 ft 506 kts 139°
2026-04-10 14:29 11.18853 -148.05108 41012 ft 506 kts 139°
2026-04-10 14:29 11.13483 -148.00335 41012 ft 506 kts 139°
2026-04-10 14:30 11.08120 -147.95570 41013 ft 506 kts 139°
2026-04-10 14:30 11.02732 -147.90785 41012 ft 506 kts 139°
2026-04-10 14:31 10.97343 -147.86001 41012 ft 505 kts 139°
2026-04-10 14:31 10.92039 -147.81296 41012 ft 505 kts 138°
2026-04-10 14:32 10.86656 -147.76523 41012 ft 505 kts 138°
2026-04-10 14:32 10.81294 -147.71770 41012 ft 505 kts 138°
2026-04-10 14:33 10.75933 -147.67022 41012 ft 505 kts 138°
2026-04-10 14:33 10.70510 -147.62220 41012 ft 505 kts 138°
2026-04-10 14:34 10.65151 -147.57478 41012 ft 505 kts 138°
2026-04-10 14:34 10.59780 -147.52726 41012 ft 505 kts 138°
2026-04-10 14:35 10.54398 -147.47968 41012 ft 505 kts 138°
2026-04-10 14:35 10.49002 -147.43199 41012 ft 505 kts 138°
2026-04-10 14:36 10.43619 -147.38445 41012 ft 505 kts 138°
2026-04-10 14:36 10.38220 -147.33678 41013 ft 505 kts 139°
2026-04-10 14:37 10.32825 -147.28918 41013 ft 505 kts 139°
2026-04-10 14:37 10.27447 -147.24174 41013 ft 505 kts 139°
2026-04-10 14:38 10.22065 -147.19430 41013 ft 505 kts 139°
2026-04-10 14:38 10.16679 -147.14683 41013 ft 505 kts 139°
2026-04-10 14:39 10.11278 -147.09927 41013 ft 505 kts 138°
2026-04-10 14:39 10.05915 -147.05206 41013 ft 505 kts 138°
2026-04-10 14:40 10.00517 -147.00456 41013 ft 505 kts 137°
2026-04-10 14:40 9.95463 -146.95384 41014 ft 505 kts 133°
2026-04-10 14:41 9.90441 -146.90265 41014 ft 507 kts 133°
2026-04-10 14:41 9.85382 -146.85111 41011 ft 508 kts 133°
2026-04-10 14:42 9.80327 -146.79966 41010 ft 508 kts 133°
2026-04-10 14:42 9.75236 -146.74787 41010 ft 507 kts 133°
2026-04-10 14:43 9.70161 -146.69627 40961 ft 508 kts 133°
2026-04-10 14:43 9.65070 -146.64454 40904 ft 507 kts 133°
2026-04-10 14:44 9.60027 -146.59332 40871 ft 507 kts 133°
2026-04-10 14:44 9.54939 -146.54165 40881 ft 507 kts 133°
2026-04-10 14:45 9.49849 -146.49000 40878 ft 507 kts 133°
2026-04-10 14:45 9.44762 -146.43839 40851 ft 507 kts 133°
2026-04-10 14:46 9.39652 -146.38657 40832 ft 507 kts 133°
2026-04-10 14:46 9.34576 -146.33512 40836 ft 507 kts 133°
2026-04-10 14:47 9.29482 -146.28352 40836 ft 507 kts 133°
2026-04-10 14:47 9.24393 -146.23199 40836 ft 507 kts 133°
2026-04-10 14:48 9.19290 -146.18034 40836 ft 507 kts 133°
2026-04-10 14:48 9.14217 -146.12901 40836 ft 507 kts 133°
2026-04-10 14:49 9.09102 -146.07729 40836 ft 507 kts 133°
2026-04-10 14:49 9.03964 -146.02535 40836 ft 508 kts 133°
2026-04-10 14:50 8.98830 -145.97346 40837 ft 509 kts 132°
2026-04-10 14:50 8.93708 -145.92173 40837 ft 510 kts 132°
2026-04-10 14:51 8.88580 -145.86995 40833 ft 510 kts 132°
2026-04-10 14:51 8.83432 -145.81800 40832 ft 510 kts 132°
2026-04-10 14:52 8.78302 -145.76624 40833 ft 510 kts 132°
2026-04-10 14:52 8.73157 -145.71437 40833 ft 510 kts 132°
2026-04-10 14:53 8.67996 -145.66235 40832 ft 510 kts 132°
2026-04-10 14:53 8.62871 -145.61071 40832 ft 510 kts 132°
2026-04-10 14:54 8.57733 -145.55896 40834 ft 510 kts 132°
2026-04-10 14:54 8.52686 -145.50816 40833 ft 510 kts 132°
2026-04-10 14:55 8.47667 -145.45764 40832 ft 510 kts 132°
2026-04-10 14:55 8.42594 -145.40662 40832 ft 510 kts 132°
2026-04-10 14:56 8.37530 -145.35569 40831 ft 510 kts 132°
2026-04-10 14:56 8.32370 -145.30383 40836 ft 510 kts 133°
2026-04-10 14:57 8.27271 -145.25261 40836 ft 510 kts 132°
2026-04-10 14:57 8.22180 -145.20147 40836 ft 510 kts 132°
2026-04-10 14:58 8.17068 -145.15014 40837 ft 510 kts 133°
2026-04-10 14:58 8.11940 -145.09867 40836 ft 511 kts 133°
2026-04-10 14:59 8.06832 -145.04744 40837 ft 512 kts 133°
2026-04-10 14:59 8.01724 -144.99621 40836 ft 513 kts 133°
2026-04-10 15:00 7.96535 -144.94418 40839 ft 513 kts 133°
2026-04-10 15:00 7.91424 -144.89297 40837 ft 513 kts 133°
2026-04-10 15:01 7.86284 -144.84149 40833 ft 513 kts 133°
2026-04-10 15:01 7.81150 -144.79008 40831 ft 513 kts 133°
2026-04-10 15:02 7.76006 -144.73859 40833 ft 513 kts 133°
2026-04-10 15:02 7.71465 -144.69316 40989 ft 510 kts 133°
2026-04-10 15:03 7.67332 -144.65180 41011 ft 515 kts 133°
2026-04-10 15:03 7.63134 -144.60983 41011 ft 515 kts 133°
2026-04-10 15:04 7.58143 -144.55994 41010 ft 513 kts 133°
2026-04-10 15:04 7.52789 -144.50643 41011 ft 513 kts 133°
2026-04-10 15:05 7.45309 -144.43171 41011 ft 513 kts 133°
2026-04-10 15:05 7.39670 -144.37540 41011 ft 513 kts 133°
2026-04-10 15:06 7.34488 -144.32369 41013 ft 513 kts 133°
2026-04-10 15:06 7.29354 -144.27246 41014 ft 514 kts 133°
2026-04-10 15:07 7.24199 -144.22104 41013 ft 513 kts 133°
2026-04-10 15:07 7.19080 -144.17000 41015 ft 513 kts 133°
2026-04-10 15:08 7.13968 -144.11906 41014 ft 513 kts 133°
2026-04-10 15:08 7.08842 -144.06798 41014 ft 513 kts 133°
2026-04-10 15:09 7.03706 -144.01682 41014 ft 513 kts 133°
2026-04-10 15:09 6.98559 -143.96555 41015 ft 514 kts 133°
2026-04-10 15:10 6.93402 -143.91421 41016 ft 516 kts 133°
2026-04-10 15:10 6.88240 -143.86284 41011 ft 517 kts 134°
2026-04-10 15:11 6.83085 -143.81159 41011 ft 517 kts 133°
2026-04-10 15:11 6.77924 -143.76027 41011 ft 517 kts 133°
2026-04-10 15:12 6.72715 -143.70849 41011 ft 517 kts 133°
2026-04-10 15:12 6.67556 -143.65721 41011 ft 517 kts 133°
2026-04-10 15:13 6.62381 -143.60580 41012 ft 517 kts 133°
2026-04-10 15:13 6.57215 -143.55449 41012 ft 517 kts 134°
2026-04-10 15:14 6.52030 -143.50301 41012 ft 517 kts 133°
2026-04-10 15:14 6.46861 -143.45170 41012 ft 517 kts 133°
2026-04-10 15:15 6.41815 -143.40162 41013 ft 517 kts 133°
2026-04-10 15:15 6.36622 -143.35011 41012 ft 517 kts 133°
2026-04-10 15:16 6.31491 -143.29923 41013 ft 517 kts 134°
2026-04-10 15:16 6.26316 -143.24793 41014 ft 517 kts 134°
2026-04-10 15:17 6.21145 -143.19668 41014 ft 517 kts 134°
2026-04-10 15:17 6.15948 -143.14519 41014 ft 517 kts 134°
2026-04-10 15:18 6.10777 -143.09397 41014 ft 517 kts 134°
2026-04-10 15:18 6.05612 -143.04282 41014 ft 517 kts 134°
2026-04-10 15:19 6.00414 -142.99135 41016 ft 518 kts 134°
2026-04-10 15:19 5.95223 -142.93998 41017 ft 518 kts 134°
2026-04-10 15:20 5.90028 -142.88858 41013 ft 519 kts 134°
2026-04-10 15:20 5.84844 -142.83730 41012 ft 519 kts 134°
2026-04-10 15:21 5.79610 -142.78554 41011 ft 519 kts 134°
2026-04-10 15:21 5.74397 -142.73402 41014 ft 520 kts 134°
2026-04-10 15:22 5.69194 -142.68259 41013 ft 519 kts 134°
2026-04-10 15:22 5.63965 -142.63093 41014 ft 519 kts 134°
2026-04-10 15:23 5.58768 -142.57959 41014 ft 519 kts 134°
2026-04-10 15:23 5.53580 -142.52836 41011 ft 519 kts 134°
2026-04-10 15:24 5.48369 -142.47692 41007 ft 519 kts 134°
2026-04-10 15:24 5.43146 -142.42536 41011 ft 519 kts 134°
2026-04-10 15:25 5.37970 -142.37429 41014 ft 519 kts 134°
2026-04-10 15:25 5.32783 -142.32312 41014 ft 519 kts 134°
2026-04-10 15:26 5.27702 -142.27301 41014 ft 520 kts 134°
2026-04-10 15:26 5.22508 -142.22178 41014 ft 520 kts 134°
2026-04-10 15:27 5.17327 -142.17072 41013 ft 519 kts 134°
2026-04-10 15:27 5.12146 -142.11965 41015 ft 519 kts 134°
2026-04-10 15:28 5.06943 -142.06837 41018 ft 522 kts 134°
2026-04-10 15:28 5.01676 -142.01648 41017 ft 528 kts 135°
2026-04-10 15:29 4.96033 -141.96810 41018 ft 529 kts 142°
2026-04-10 15:29 4.90200 -141.92110 41017 ft 529 kts 142°
2026-04-10 15:30 4.84416 -141.87453 41011 ft 529 kts 142°
2026-04-10 15:30 4.78603 -141.82776 41009 ft 529 kts 141°
2026-04-10 15:31 4.72793 -141.78099 41014 ft 529 kts 142°
2026-04-10 15:31 4.66963 -141.73409 41016 ft 529 kts 141°
2026-04-10 15:32 4.61154 -141.68736 41010 ft 529 kts 142°
2026-04-10 15:32 4.55306 -141.64036 40862 ft 531 kts 141°
2026-04-10 15:33 4.49420 -141.59304 40836 ft 527 kts 142°
2026-04-10 15:33 4.43558 -141.54591 40838 ft 528 kts 141°
2026-04-10 15:34 4.37697 -141.49882 40841 ft 528 kts 141°
2026-04-10 15:34 4.31841 -141.45180 40834 ft 529 kts 142°
2026-04-10 15:35 4.25945 -141.40441 40841 ft 529 kts 142°
2026-04-10 15:35 4.20075 -141.35730 40838 ft 530 kts 141°
2026-04-10 15:36 4.14198 -141.31008 40836 ft 528 kts 141°
2026-04-10 15:36 4.08308 -141.26281 40838 ft 528 kts 142°
2026-04-10 15:37 4.02411 -141.21548 40835 ft 529 kts 142°
2026-04-10 15:37 3.96555 -141.16848 40839 ft 528 kts 142°
2026-04-10 15:38 3.90685 -141.12139 40842 ft 529 kts 142°
2026-04-10 15:38 3.84795 -141.07416 40835 ft 528 kts 141°
2026-04-10 15:39 3.78964 -141.02740 40833 ft 527 kts 141°
2026-04-10 15:39 3.73114 -140.98050 40826 ft 526 kts 141°
2026-04-10 15:40 3.67243 -140.93343 40833 ft 525 kts 141°
2026-04-10 15:40 3.61423 -140.88676 40836 ft 524 kts 141°
2026-04-10 15:41 3.55600 -140.84008 40834 ft 524 kts 141°
2026-04-10 15:41 3.49774 -140.79340 40835 ft 524 kts 140°
2026-04-10 15:42 3.43941 -140.74666 40834 ft 524 kts 141°
2026-04-10 15:42 3.38122 -140.70005 40836 ft 523 kts 141°
2026-04-10 15:43 3.32297 -140.65339 40834 ft 524 kts 141°
2026-04-10 15:43 3.26454 -140.60660 40837 ft 523 kts 141°
2026-04-10 15:44 3.20654 -140.56016 40836 ft 523 kts 141°
2026-04-10 15:44 3.14817 -140.51343 40837 ft 524 kts 141°
2026-04-10 15:45 3.08975 -140.46667 40837 ft 524 kts 141°
2026-04-10 15:45 3.03140 -140.41998 40834 ft 524 kts 141°
2026-04-10 15:46 2.97327 -140.37346 40837 ft 527 kts 141°
2026-04-10 15:46 2.91426 -140.32623 40834 ft 531 kts 141°
2026-04-10 15:47 2.85480 -140.27867 40831 ft 534 kts 141°
2026-04-10 15:47 2.79552 -140.23125 40830 ft 534 kts 141°
2026-04-10 15:48 2.73617 -140.18378 40833 ft 533 kts 141°
2026-04-10 15:48 2.67701 -140.13649 40831 ft 533 kts 141°
2026-04-10 15:49 2.61733 -140.08876 40832 ft 534 kts 141°
2026-04-10 15:49 2.55813 -140.04144 40835 ft 534 kts 141°
2026-04-10 15:50 2.49853 -139.99380 40834 ft 533 kts 141°
2026-04-10 15:50 2.43901 -139.94623 40835 ft 533 kts 141°
2026-04-10 15:51 2.37964 -139.89878 40835 ft 533 kts 141°
2026-04-10 15:51 2.32036 -139.85140 40840 ft 533 kts 141°
2026-04-10 15:52 2.26108 -139.80404 40834 ft 533 kts 141°
2026-04-10 15:52 2.20153 -139.75647 40837 ft 533 kts 141°
2026-04-10 15:53 2.14255 -139.70935 40837 ft 533 kts 141°
2026-04-10 15:53 2.08331 -139.66203 40844 ft 533 kts 141°
2026-04-10 15:54 2.02369 -139.61441 40835 ft 533 kts 141°
2026-04-10 15:54 1.96427 -139.56697 40840 ft 533 kts 141°
2026-04-10 15:55 1.90481 -139.51948 40837 ft 534 kts 141°
2026-04-10 15:55 1.84548 -139.47212 40833 ft 533 kts 141°
2026-04-10 15:56 1.78597 -139.42460 40836 ft 533 kts 141°
2026-04-10 15:56 1.72674 -139.37731 40840 ft 533 kts 141°
2026-04-10 15:57 1.66735 -139.32990 40836 ft 533 kts 141°
2026-04-10 15:57 1.60788 -139.28244 40831 ft 533 kts 141°
2026-04-10 15:58 1.54878 -139.23527 40831 ft 534 kts 141°
2026-04-10 15:58 1.48947 -139.18794 40840 ft 533 kts 141°
2026-04-10 15:59 1.43023 -139.14065 40830 ft 532 kts 141°
2026-04-10 15:59 1.37101 -139.09341 40834 ft 532 kts 141°
2026-04-10 16:00 1.31166 -139.04605 40841 ft 532 kts 141°
2026-04-10 16:00 1.25256 -138.99890 40835 ft 531 kts 141°
2026-04-10 16:01 1.19304 -138.95141 40833 ft 530 kts 141°
2026-04-10 16:01 1.13334 -138.90379 40840 ft 530 kts 141°
2026-04-10 16:02 1.07280 -138.85547 40840 ft 532 kts 141°
2026-04-10 16:02 1.01243 -138.80731 40859 ft 536 kts 142°
2026-04-10 16:03 0.95173 -138.75890 40868 ft 539 kts 142°
2026-04-10 16:03 0.89114 -138.71060 40864 ft 539 kts 142°
2026-04-10 16:04 0.83007 -138.66189 40862 ft 538 kts 142°
2026-04-10 16:04 0.76910 -138.61327 40863 ft 539 kts 142°
2026-04-10 16:05 0.70815 -138.56466 40862 ft 539 kts 142°
2026-04-10 16:05 0.64738 -138.51620 40863 ft 539 kts 142°
2026-04-10 16:06 0.58659 -138.46772 40865 ft 539 kts 142°
2026-04-10 16:06 0.52581 -138.41926 40865 ft 539 kts 142°
2026-04-10 16:07 0.46481 -138.37062 40866 ft 539 kts 142°
2026-04-10 16:07 0.40403 -138.32215 40861 ft 539 kts 142°
2026-04-10 16:08 0.34295 -138.27345 40860 ft 538 kts 142°
2026-04-10 16:08 0.28212 -138.22494 40862 ft 539 kts 142°
2026-04-10 16:09 0.22265 -138.17751 40861 ft 539 kts 142°
2026-04-10 16:09 0.16311 -138.13005 40861 ft 539 kts 142°
2026-04-10 16:10 0.10369 -138.08268 40863 ft 539 kts 142°
2026-04-10 16:10 0.04446 -138.03545 40864 ft 539 kts 142°
2026-04-10 16:11 -0.01219 -137.98442 40860 ft 539 kts 132°
2026-04-10 16:11 -0.06208 -137.92583 40867 ft 540 kts 130°
2026-04-10 16:12 -0.11029 -137.86823 40861 ft 539 kts 130°
2026-04-10 16:13 -0.18324 -137.78108 40861 ft 539 kts 130°
2026-04-10 16:13 -0.23270 -137.72198 40861 ft 539 kts 130°
2026-04-10 16:14 -0.28154 -137.66363 40861 ft 539 kts 130°
2026-04-10 16:14 -0.33113 -137.60437 40863 ft 539 kts 130°
2026-04-10 16:15 -0.38078 -137.54505 40863 ft 539 kts 130°
2026-04-10 16:15 -0.43068 -137.48542 40864 ft 539 kts 130°
2026-04-10 16:16 -0.48022 -137.42623 40864 ft 539 kts 130°
2026-04-10 16:16 -0.52982 -137.36695 40867 ft 539 kts 130°
2026-04-10 16:17 -0.57953 -137.30757 40860 ft 539 kts 130°
2026-04-10 16:17 -0.62873 -137.24877 40860 ft 539 kts 130°
2026-04-10 16:18 -0.67835 -137.18946 40862 ft 539 kts 130°
2026-04-10 16:18 -0.72792 -137.13023 40861 ft 539 kts 130°
2026-04-10 16:19 -0.77715 -137.07139 40862 ft 539 kts 130°
2026-04-10 16:19 -0.82646 -137.01246 40862 ft 539 kts 130°
2026-04-10 16:20 -0.87647 -136.95268 40867 ft 539 kts 130°
2026-04-10 16:20 -0.92477 -136.89494 40869 ft 538 kts 130°
2026-04-10 16:21 -0.97351 -136.83669 40866 ft 538 kts 130°
2026-04-10 16:21 -1.02230 -136.77838 40865 ft 538 kts 130°
2026-04-10 16:22 -1.07130 -136.71977 40869 ft 540 kts 130°
2026-04-10 16:22 -1.12066 -136.66079 40862 ft 541 kts 130°
2026-04-10 16:23 -1.16990 -136.60191 40860 ft 541 kts 130°
2026-04-10 16:23 -1.21882 -136.54340 40862 ft 540 kts 130°
2026-04-10 16:24 -1.26788 -136.48477 40858 ft 540 kts 130°
2026-04-10 16:24 -1.31674 -136.42633 40866 ft 541 kts 130°
2026-04-10 16:25 -1.36572 -136.36776 40867 ft 540 kts 130°
2026-04-10 16:25 -1.41465 -136.30923 40859 ft 540 kts 130°
2026-04-10 16:26 -1.46408 -136.25012 40857 ft 540 kts 130°
2026-04-10 16:26 -1.51334 -136.19120 40860 ft 540 kts 130°
2026-04-10 16:27 -1.56245 -136.13245 40860 ft 540 kts 130°
2026-04-10 16:27 -1.61195 -136.07324 40865 ft 540 kts 130°
2026-04-10 16:28 -1.66083 -136.01475 40862 ft 541 kts 130°
2026-04-10 16:28 -1.70988 -135.95606 40861 ft 541 kts 130°
2026-04-10 16:29 -1.75876 -135.89756 40863 ft 540 kts 130°
2026-04-10 16:29 -1.80783 -135.83884 40861 ft 540 kts 130°
2026-04-10 16:30 -1.85671 -135.78033 40865 ft 541 kts 130°
2026-04-10 16:30 -1.90601 -135.72133 40866 ft 541 kts 130°
2026-04-10 16:31 -1.94704 -135.67221 40865 ft 540 kts 130°
2026-04-10 16:31 -1.99425 -135.61569 40865 ft 540 kts 130°
2026-04-10 16:32 -2.04630 -135.55336 40870 ft 541 kts 130°
2026-04-10 16:32 -2.09491 -135.49518 40870 ft 540 kts 130°
2026-04-10 16:33 -2.14326 -135.43726 40956 ft 539 kts 130°
2026-04-10 16:33 -2.19207 -135.37880 40970 ft 542 kts 130°
2026-04-10 16:34 -2.24130 -135.31984 40963 ft 541 kts 130°
2026-04-10 16:34 -2.28976 -135.26178 40967 ft 541 kts 130°
2026-04-10 16:35 -2.33838 -135.20353 40964 ft 541 kts 130°
2026-04-10 16:35 -2.38747 -135.14470 40969 ft 541 kts 130°
2026-04-10 16:36 -2.43644 -135.08601 40967 ft 541 kts 130°
2026-04-10 16:36 -2.48542 -135.02730 40966 ft 539 kts 130°
2026-04-10 16:37 -2.53409 -134.96895 40969 ft 538 kts 130°
2026-04-10 16:37 -2.58264 -134.91074 40971 ft 537 kts 130°
2026-04-10 16:38 -2.63145 -134.85224 40972 ft 537 kts 130°
2026-04-10 16:38 -2.67998 -134.79404 40971 ft 537 kts 130°
2026-04-10 16:39 -2.72867 -134.73565 40972 ft 537 kts 130°
2026-04-10 16:39 -2.77735 -134.67726 40971 ft 537 kts 130°
2026-04-10 16:40 -2.82591 -134.61900 40973 ft 537 kts 130°
2026-04-10 16:40 -2.87496 -134.56014 40973 ft 537 kts 130°
2026-04-10 16:41 -2.92411 -134.50115 40975 ft 538 kts 130°
2026-04-10 16:41 -2.97357 -134.44178 40976 ft 541 kts 130°
2026-04-10 16:42 -3.02309 -134.38234 40979 ft 542 kts 130°
2026-04-10 16:42 -3.07278 -134.32270 40969 ft 543 kts 131°
2026-04-10 16:43 -3.12228 -134.26327 40967 ft 542 kts 130°
2026-04-10 16:43 -3.17190 -134.20366 40966 ft 542 kts 130°
2026-04-10 16:44 -3.22127 -134.14437 40969 ft 543 kts 130°
2026-04-10 16:44 -3.27065 -134.08504 40967 ft 543 kts 130°
2026-04-10 16:45 -3.32042 -134.02523 40968 ft 543 kts 131°
2026-04-10 16:45 -3.36978 -133.96592 40971 ft 542 kts 131°
2026-04-10 16:46 -3.41917 -133.90657 40969 ft 543 kts 130°
2026-04-10 16:46 -3.46835 -133.84744 40970 ft 543 kts 130°
2026-04-10 16:47 -3.51796 -133.78779 40970 ft 543 kts 130°
2026-04-10 16:47 -3.56742 -133.72831 40973 ft 543 kts 130°
2026-04-10 16:48 -3.61683 -133.66886 40972 ft 542 kts 130°
2026-04-10 16:48 -3.66622 -133.60944 40975 ft 543 kts 130°
2026-04-10 16:49 -3.71561 -133.55001 40974 ft 542 kts 130°
2026-04-10 16:49 -3.76488 -133.49071 40974 ft 542 kts 130°
2026-04-10 16:50 -3.81434 -133.43118 40977 ft 543 kts 130°
2026-04-10 16:50 -3.86384 -133.37158 40978 ft 543 kts 130°
2026-04-10 16:51 -3.91311 -133.31226 40970 ft 542 kts 130°
2026-04-10 16:51 -3.96250 -133.25275 40968 ft 542 kts 130°
2026-04-10 16:52 -4.01204 -133.19307 40971 ft 543 kts 130°
2026-04-10 16:52 -4.06172 -133.13320 40971 ft 542 kts 131°
2026-04-10 16:53 -4.11103 -133.07376 40969 ft 540 kts 131°
2026-04-10 16:53 -4.16020 -133.01448 40968 ft 539 kts 131°
2026-04-10 16:54 -4.20924 -132.95534 40968 ft 538 kts 131°
2026-04-10 16:54 -4.25814 -132.89639 40971 ft 538 kts 131°
2026-04-10 16:55 -4.30722 -132.83719 40971 ft 538 kts 131°
2026-04-10 16:55 -4.35632 -132.77795 40972 ft 538 kts 131°
2026-04-10 16:56 -4.40534 -132.71879 40972 ft 538 kts 131°
2026-04-10 16:56 -4.45433 -132.65965 40973 ft 538 kts 131°
2026-04-10 16:57 -4.50306 -132.60081 40974 ft 538 kts 131°
2026-04-10 16:57 -4.55223 -132.54143 40975 ft 538 kts 131°
2026-04-10 16:58 -4.60110 -132.48240 40975 ft 538 kts 131°
2026-04-10 16:58 -4.64984 -132.42351 40976 ft 538 kts 131°
2026-04-10 16:59 -4.69907 -132.36400 40976 ft 538 kts 131°
2026-04-10 16:59 -4.74795 -132.30493 40967 ft 538 kts 131°
2026-04-10 17:00 -4.79691 -132.24573 40967 ft 538 kts 131°
2026-04-10 17:00 -4.84575 -132.18665 40967 ft 538 kts 131°
2026-04-10 17:01 -4.89487 -132.12723 40968 ft 538 kts 131°
2026-04-10 17:01 -4.94379 -132.06804 40969 ft 538 kts 131°
2026-04-10 17:02 -4.99280 -132.00895 40965 ft 538 kts 133°
2026-04-10 17:02 -5.04686 -131.95386 40971 ft 540 kts 137°
2026-04-10 17:03 -5.10144 -131.90006 40918 ft 545 kts 138°
2026-04-10 17:03 -5.15644 -131.84586 40891 ft 545 kts 138°
2026-04-10 17:04 -5.21086 -131.79223 40891 ft 544 kts 138°
2026-04-10 17:04 -5.26595 -131.73792 40892 ft 544 kts 138°
2026-04-10 17:05 -5.32044 -131.68418 40892 ft 544 kts 138°
2026-04-10 17:05 -5.37466 -131.63069 40893 ft 544 kts 138°
2026-04-10 17:06 -5.42915 -131.57692 40894 ft 544 kts 138°
2026-04-10 17:06 -5.48408 -131.52270 40894 ft 544 kts 138°
2026-04-10 17:07 -5.53905 -131.46843 40895 ft 544 kts 138°
2026-04-10 17:07 -5.59401 -131.41415 40896 ft 544 kts 138°
2026-04-10 17:08 -5.64909 -131.35975 40896 ft 544 kts 138°
2026-04-10 17:08 -5.70388 -131.30560 40887 ft 544 kts 137°
2026-04-10 17:09 -5.75833 -131.25178 40887 ft 544 kts 137°
2026-04-10 17:09 -5.81332 -131.19742 40887 ft 544 kts 138°
2026-04-10 17:10 -5.86810 -131.14326 40888 ft 544 kts 137°
2026-04-10 17:10 -5.92292 -131.08902 40888 ft 544 kts 138°
2026-04-10 17:11 -5.97742 -131.03509 40889 ft 544 kts 138°
2026-04-10 17:11 -6.03232 -130.98074 40889 ft 543 kts 138°
2026-04-10 17:12 -6.08617 -130.92741 40889 ft 540 kts 138°
2026-04-10 17:12 -6.14015 -130.87396 40888 ft 539 kts 138°
2026-04-10 17:13 -6.19454 -130.82006 40889 ft 537 kts 138°
2026-04-10 17:13 -6.24848 -130.76662 40889 ft 536 kts 138°
2026-04-10 17:14 -6.30232 -130.71325 40890 ft 536 kts 138°
2026-04-10 17:14 -6.35586 -130.66016 40890 ft 536 kts 138°
2026-04-10 17:15 -6.40986 -130.60660 40891 ft 536 kts 138°
2026-04-10 17:15 -6.46373 -130.55315 40892 ft 536 kts 138°
2026-04-10 17:16 -6.51751 -130.49977 40893 ft 536 kts 138°
2026-04-10 17:16 -6.57175 -130.44591 40895 ft 536 kts 138°
2026-04-10 17:17 -6.62579 -130.39222 40896 ft 536 kts 138°
2026-04-10 17:17 -6.67996 -130.33843 40890 ft 536 kts 138°
2026-04-10 17:18 -6.73412 -130.28459 40887 ft 536 kts 138°
2026-04-10 17:18 -6.78792 -130.23111 40888 ft 536 kts 138°
2026-04-10 17:19 -6.84217 -130.17716 40888 ft 536 kts 138°
2026-04-10 17:19 -6.89628 -130.12334 40887 ft 537 kts 138°
2026-04-10 17:20 -6.95071 -130.06919 40889 ft 540 kts 137°
2026-04-10 17:20 -7.00525 -130.01489 40890 ft 544 kts 137°
2026-04-10 17:21 -7.08755 -129.93289 40891 ft 547 kts 137°
2026-04-10 17:21 -7.14252 -129.87812 40886 ft 546 kts 137°
2026-04-10 17:22 -7.19737 -129.82345 40895 ft 545 kts 137°
2026-04-10 17:22 -7.25211 -129.76886 40977 ft 545 kts 137°
2026-04-10 17:23 -7.30720 -129.71392 41067 ft 546 kts 137°
2026-04-10 17:23 -7.36225 -129.65898 41153 ft 546 kts 137°
2026-04-10 17:24 -7.41740 -129.60392 41240 ft 546 kts 137°
2026-04-10 17:24 -7.47248 -129.54893 41268 ft 547 kts 137°
2026-04-10 17:25 -7.52791 -129.49355 41271 ft 546 kts 137°
2026-04-10 17:25 -7.58303 -129.43846 41272 ft 546 kts 137°
2026-04-10 17:26 -7.63827 -129.38324 41271 ft 547 kts 137°
2026-04-10 17:26 -7.69362 -129.32788 41266 ft 547 kts 137°
2026-04-10 17:27 -7.74889 -129.27259 41263 ft 546 kts 137°
2026-04-10 17:27 -7.80408 -129.21736 41265 ft 546 kts 137°
2026-04-10 17:28 -7.85915 -129.16223 41266 ft 547 kts 137°
2026-04-10 17:28 -7.91456 -129.10672 41270 ft 546 kts 137°
2026-04-10 17:29 -7.96973 -129.05143 41266 ft 546 kts 137°
2026-04-10 17:29 -8.02480 -128.99621 41269 ft 545 kts 137°
2026-04-10 17:30 -8.07966 -128.94119 41268 ft 545 kts 137°
2026-04-10 17:30 -8.13479 -128.88588 41266 ft 544 kts 137°
2026-04-10 17:31 -8.18966 -128.83081 41268 ft 544 kts 137°
2026-04-10 17:31 -8.24468 -128.77557 41269 ft 544 kts 137°
2026-04-10 17:32 -8.29969 -128.72031 41269 ft 544 kts 137°
2026-04-10 17:32 -8.35466 -128.66505 41269 ft 545 kts 137°
2026-04-10 17:33 -8.40912 -128.61030 41031 ft 548 kts 137°
2026-04-10 17:33 -8.46378 -128.55533 41001 ft 541 kts 137°
2026-04-10 17:34 -8.51803 -128.50075 41002 ft 542 kts 137°
2026-04-10 17:34 -8.57223 -128.44618 41003 ft 544 kts 137°
2026-04-10 17:35 -8.62693 -128.39108 41002 ft 544 kts 137°
2026-04-10 17:35 -8.68166 -128.33595 40997 ft 543 kts 137°
2026-04-10 17:36 -8.73605 -128.28112 40996 ft 543 kts 137°
2026-04-10 17:36 -8.79029 -128.22643 40996 ft 544 kts 137°
2026-04-10 17:37 -8.84481 -128.17142 40997 ft 543 kts 137°
2026-04-10 17:37 -8.89916 -128.11658 40998 ft 543 kts 137°
2026-04-10 17:38 -8.95355 -128.06166 40999 ft 544 kts 137°
2026-04-10 17:38 -9.00793 -128.00672 40999 ft 546 kts 137°
2026-04-10 17:39 -9.06289 -127.95118 41001 ft 553 kts 137°
2026-04-10 17:39 -9.11796 -127.89549 40998 ft 558 kts 137°
2026-04-10 17:40 -9.17358 -127.83923 40997 ft 559 kts 137°
2026-04-10 17:40 -9.22928 -127.78285 40996 ft 558 kts 137°
2026-04-10 17:41 -9.28511 -127.72632 40997 ft 558 kts 137°
2026-04-10 17:41 -9.34098 -127.66973 40999 ft 558 kts 137°
2026-04-10 17:42 -9.39659 -127.61335 41001 ft 558 kts 137°
2026-04-10 17:42 -9.45243 -127.55673 41003 ft 558 kts 137°
2026-04-10 17:43 -9.50834 -127.50001 41003 ft 558 kts 137°
2026-04-10 17:43 -9.56396 -127.44356 41002 ft 558 kts 137°
2026-04-10 17:44 -9.61975 -127.38690 41005 ft 558 kts 137°
2026-04-10 17:44 -9.67587 -127.32990 40997 ft 558 kts 136°
2026-04-10 17:45 -9.73157 -127.27327 40996 ft 558 kts 137°
2026-04-10 17:45 -9.78717 -127.21673 40996 ft 558 kts 136°
2026-04-10 17:46 -9.84313 -127.15976 40998 ft 558 kts 137°
2026-04-10 17:46 -9.89858 -127.10331 40997 ft 557 kts 137°
2026-04-10 17:47 -9.95384 -127.04700 40999 ft 556 kts 137°
2026-04-10 17:47 -10.01153 -126.99323 40996 ft 550 kts 147°
2026-04-10 17:48 -10.07587 -126.94849 41000 ft 548 kts 150°
2026-04-10 17:48 -10.14001 -126.90497 40995 ft 547 kts 150°
2026-04-10 17:49 -10.20414 -126.86140 40997 ft 547 kts 150°
2026-04-10 17:49 -10.26796 -126.81802 40998 ft 548 kts 150°
2026-04-10 17:50 -10.33267 -126.77402 40999 ft 547 kts 150°
2026-04-10 17:50 -10.39692 -126.73031 41000 ft 547 kts 150°
2026-04-10 17:51 -10.46115 -126.68660 41002 ft 548 kts 150°
2026-04-10 17:51 -10.52582 -126.64255 41003 ft 548 kts 150°
2026-04-10 17:52 -10.59022 -126.59867 41004 ft 547 kts 150°
2026-04-10 17:52 -10.65423 -126.55504 41003 ft 548 kts 150°
2026-04-10 17:53 -10.71872 -126.51104 41002 ft 547 kts 150°
2026-04-10 17:53 -10.78283 -126.46730 41004 ft 547 kts 150°
2026-04-10 17:54 -10.84758 -126.42309 41006 ft 548 kts 150°
2026-04-10 17:54 -10.91194 -126.37912 41007 ft 548 kts 150°
2026-04-10 17:55 -10.97682 -126.33476 40996 ft 552 kts 150°
2026-04-10 17:55 -11.04151 -126.29053 40996 ft 555 kts 150°
2026-04-10 17:56 -11.10674 -126.24590 40994 ft 556 kts 150°
2026-04-10 17:56 -11.17173 -126.20140 40992 ft 554 kts 150°
2026-04-10 17:57 -11.23711 -126.15662 40993 ft 555 kts 150°
2026-04-10 17:57 -11.30231 -126.11194 40994 ft 555 kts 150°
2026-04-10 17:58 -11.36759 -126.06717 40993 ft 555 kts 150°
2026-04-10 17:58 -11.43220 -126.02284 40994 ft 555 kts 150°
2026-04-10 17:59 -11.49719 -125.97822 40997 ft 555 kts 150°
2026-04-10 17:59 -11.56202 -125.93369 40999 ft 555 kts 150°
2026-04-10 18:00 -11.62720 -125.88889 40999 ft 555 kts 150°
2026-04-10 18:00 -11.69206 -125.84428 40998 ft 555 kts 150°
2026-04-10 18:01 -11.75711 -125.79952 41002 ft 555 kts 150°
2026-04-10 18:01 -11.82206 -125.75480 41001 ft 555 kts 150°
2026-04-10 18:02 -11.88772 -125.70957 41003 ft 555 kts 150°
2026-04-10 18:02 -11.95283 -125.66469 41005 ft 555 kts 150°
2026-04-10 18:03 -12.01793 -125.61978 41061 ft 553 kts 150°
2026-04-10 18:03 -12.05036 -125.59741 41222 ft 553 kts 150°
2026-04-10 18:03 -12.08331 -125.57467 41247 ft 556 kts 150°
2026-04-10 18:04 -12.14878 -125.52946 41245 ft 557 kts 150°
2026-04-10 18:04 -12.21399 -125.48441 41245 ft 555 kts 150°
2026-04-10 18:05 -12.27956 -125.43907 41247 ft 555 kts 150°
2026-04-10 18:05 -12.34525 -125.39363 41248 ft 555 kts 150°
2026-04-10 18:06 -12.41068 -125.34834 41249 ft 555 kts 150°
2026-04-10 18:06 -12.47590 -125.30316 41234 ft 555 kts 150°
2026-04-10 18:07 -12.54158 -125.25764 41234 ft 555 kts 150°
2026-04-10 18:07 -12.60673 -125.21245 41234 ft 555 kts 150°
2026-04-10 18:08 -12.67202 -125.16715 41237 ft 555 kts 150°
2026-04-10 18:08 -12.73753 -125.12166 41239 ft 555 kts 150°
2026-04-10 18:09 -12.83598 -125.05324 41240 ft 555 kts 150°
2026-04-10 18:10 -12.90119 -125.00733 41237 ft 557 kts 147°
2026-04-10 18:10 -12.96130 -124.95409 41242 ft 558 kts 141°
2026-04-10 18:11 -13.01984 -124.89900 41243 ft 556 kts 141°
2026-04-10 18:11 -13.07802 -124.84421 41244 ft 555 kts 142°
2026-04-10 18:12 -13.13619 -124.78940 41242 ft 554 kts 142°
2026-04-10 18:12 -13.19437 -124.73455 41243 ft 554 kts 142°
2026-04-10 18:13 -13.25254 -124.67966 41244 ft 554 kts 142°
2026-04-10 18:13 -13.31037 -124.62505 41245 ft 554 kts 142°
2026-04-10 18:14 -13.36831 -124.57030 41246 ft 554 kts 142°
2026-04-10 18:14 -13.42655 -124.51523 41247 ft 554 kts 142°
2026-04-10 18:15 -13.48448 -124.46041 41249 ft 554 kts 142°
2026-04-10 18:15 -13.54246 -124.40552 41249 ft 554 kts 142°
2026-04-10 18:16 -13.60062 -124.35040 41250 ft 554 kts 142°
2026-04-10 18:16 -13.65890 -124.29514 41235 ft 554 kts 142°
2026-04-10 18:17 -13.71664 -124.24035 41236 ft 554 kts 142°
2026-04-10 18:17 -13.77469 -124.18523 41237 ft 554 kts 142°
2026-04-10 18:18 -13.83281 -124.13000 41238 ft 554 kts 142°
2026-04-10 18:18 -13.89044 -124.07520 41239 ft 554 kts 142°
2026-04-10 18:19 -13.94856 -124.01989 41240 ft 554 kts 142°
2026-04-10 18:19 -14.00676 -123.96447 41241 ft 554 kts 142°
2026-04-10 18:20 -14.06452 -123.90942 41242 ft 554 kts 142°
2026-04-10 18:20 -14.12237 -123.85426 41241 ft 554 kts 142°
2026-04-10 18:21 -14.17665 -123.80245 41242 ft 554 kts 142°
2026-04-10 18:21 -14.23415 -123.74755 41243 ft 554 kts 142°
2026-04-10 18:22 -14.29149 -123.69274 41244 ft 554 kts 142°
2026-04-10 18:22 -14.34936 -123.63740 41245 ft 554 kts 142°
2026-04-10 18:23 -14.40691 -123.58232 41246 ft 554 kts 142°
2026-04-10 18:23 -14.46452 -123.52714 41247 ft 554 kts 142°
2026-04-10 18:24 -14.52146 -123.47256 41248 ft 554 kts 142°
2026-04-10 18:24 -14.57810 -123.41823 41249 ft 554 kts 142°
2026-04-10 18:25 -14.63617 -123.36249 41250 ft 554 kts 142°
2026-04-10 18:25 -14.69418 -123.30676 41235 ft 554 kts 142°
2026-04-10 18:26 -14.75128 -123.25187 41236 ft 554 kts 142°
2026-04-10 18:26 -14.80947 -123.19589 41237 ft 555 kts 142°
2026-04-10 18:27 -14.86695 -123.14054 41238 ft 554 kts 142°
2026-04-10 18:27 -14.92482 -123.08476 41239 ft 555 kts 142°
2026-04-10 18:28 -14.98274 -123.02892 41239 ft 557 kts 142°
2026-04-10 18:28 -15.04085 -122.97284 41241 ft 558 kts 142°
2026-04-10 18:29 -15.09912 -122.91655 41248 ft 558 kts 142°
2026-04-10 18:29 -15.15707 -122.86054 41241 ft 558 kts 142°
2026-04-10 18:30 -15.21502 -122.80449 41243 ft 558 kts 142°
2026-04-10 18:30 -15.27306 -122.74831 41241 ft 558 kts 142°
2026-04-10 18:31 -15.33065 -122.69250 41245 ft 558 kts 142°
2026-04-10 18:31 -15.38870 -122.63622 41246 ft 558 kts 142°
2026-04-10 18:32 -15.44672 -122.57991 41247 ft 558 kts 142°
2026-04-10 18:32 -15.50442 -122.52387 41245 ft 558 kts 142°
2026-04-10 18:33 -15.56231 -122.46761 41247 ft 558 kts 142°
2026-04-10 18:33 -15.62005 -122.41142 41248 ft 558 kts 142°
2026-04-10 18:34 -15.67773 -122.35528 41251 ft 557 kts 142°
2026-04-10 18:34 -15.73520 -122.29928 41234 ft 557 kts 142°
2026-04-10 18:35 -15.79301 -122.24289 41236 ft 558 kts 142°
2026-04-10 18:35 -15.85092 -122.18639 41238 ft 558 kts 142°
2026-04-10 18:36 -15.90841 -122.13024 41235 ft 558 kts 142°
2026-04-10 18:36 -15.96602 -122.07391 41238 ft 557 kts 142°
2026-04-10 18:37 -16.02388 -122.01731 41239 ft 558 kts 142°
2026-04-10 18:37 -16.08158 -121.96080 41243 ft 557 kts 142°
2026-04-10 18:38 -16.13920 -121.90432 41239 ft 557 kts 142°
2026-04-10 18:38 -16.19661 -121.84803 41240 ft 557 kts 142°
2026-04-10 18:39 -16.25442 -121.79129 41245 ft 557 kts 142°
2026-04-10 18:39 -16.31190 -121.73480 41239 ft 558 kts 142°
2026-04-10 18:40 -16.36898 -121.67868 41246 ft 558 kts 142°
2026-04-10 18:40 -16.42622 -121.62233 41247 ft 558 kts 142°
2026-04-10 18:41 -16.48347 -121.56595 41245 ft 559 kts 142°
2026-04-10 18:41 -16.54039 -121.50984 41246 ft 558 kts 142°
2026-04-10 18:42 -16.59762 -121.45335 41249 ft 557 kts 142°
2026-04-10 18:42 -16.65495 -121.39674 41248 ft 558 kts 141°
2026-04-10 18:43 -16.71204 -121.34032 41243 ft 558 kts 141°
2026-04-10 18:43 -16.76933 -121.28366 41233 ft 558 kts 141°
2026-04-10 18:44 -16.82675 -121.22681 41237 ft 558 kts 141°
2026-04-10 18:44 -16.88383 -121.17021 41239 ft 558 kts 141°
2026-04-10 18:45 -16.94065 -121.11387 41235 ft 555 kts 141°
2026-04-10 18:45 -16.99739 -121.05757 41240 ft 554 kts 141°
2026-04-10 18:46 -17.05411 -121.00121 41241 ft 551 kts 141°
2026-04-10 18:46 -17.11010 -120.94554 41240 ft 547 kts 141°
2026-04-10 18:47 -17.16604 -120.88984 41241 ft 546 kts 141°
2026-04-10 18:47 -17.22258 -120.83351 41242 ft 547 kts 141°
2026-04-10 18:48 -17.27890 -120.77735 41242 ft 547 kts 141°
2026-04-10 18:48 -17.33531 -120.72105 41243 ft 547 kts 140°
2026-04-10 18:49 -17.39127 -120.66515 41244 ft 547 kts 141°
2026-04-10 18:49 -17.44779 -120.60866 41245 ft 547 kts 141°
2026-04-10 18:50 -17.50397 -120.55243 41246 ft 547 kts 141°
2026-04-10 18:50 -17.56023 -120.49609 41247 ft 547 kts 141°
2026-04-10 18:51 -17.61655 -120.43962 41247 ft 547 kts 140°
2026-04-10 18:51 -17.67294 -120.38304 41248 ft 547 kts 141°
2026-04-10 18:52 -17.72914 -120.32660 41236 ft 547 kts 140°
2026-04-10 18:52 -17.78517 -120.27027 41236 ft 547 kts 140°
2026-04-10 18:53 -17.84173 -120.21337 41237 ft 547 kts 140°
2026-04-10 18:53 -17.89773 -120.15698 41238 ft 547 kts 140°
2026-04-10 18:54 -17.95398 -120.10028 41239 ft 547 kts 140°
2026-04-10 18:54 -18.01052 -120.04323 41240 ft 547 kts 140°
2026-04-10 18:55 -18.06691 -119.98628 41240 ft 547 kts 140°
2026-04-10 18:55 -18.12283 -119.92975 41240 ft 547 kts 140°
2026-04-10 18:56 -18.17884 -119.87309 41241 ft 547 kts 140°
2026-04-10 18:56 -18.23519 -119.81602 41242 ft 547 kts 140°
2026-04-10 18:57 -18.29125 -119.75919 41243 ft 547 kts 140°
2026-04-10 18:57 -18.34717 -119.70245 41243 ft 548 kts 140°
2026-04-10 18:58 -18.40341 -119.64534 41244 ft 548 kts 140°
2026-04-10 18:58 -18.45942 -119.58839 41245 ft 548 kts 140°
2026-04-10 18:59 -18.51554 -119.53129 41246 ft 548 kts 140°
2026-04-10 18:59 -18.57151 -119.47428 41247 ft 548 kts 140°
2026-04-10 19:00 -18.62772 -119.41697 41248 ft 548 kts 140°
2026-04-10 19:00 -18.68374 -119.35981 41249 ft 548 kts 140°
2026-04-10 19:01 -18.73961 -119.30274 41236 ft 547 kts 140°
2026-04-10 19:01 -18.79580 -119.24528 41237 ft 548 kts 140°
2026-04-10 19:02 -18.85158 -119.18819 41237 ft 548 kts 140°
2026-04-10 19:02 -18.90732 -119.13111 41239 ft 547 kts 140°
2026-04-10 19:03 -18.96329 -119.07371 41239 ft 544 kts 139°
2026-04-10 19:03 -19.01855 -119.01699 41240 ft 540 kts 139°
2026-04-10 19:04 -19.07331 -118.96070 41239 ft 537 kts 139°
2026-04-10 19:04 -19.12772 -118.90474 41241 ft 537 kts 139°
2026-04-10 19:05 -19.18219 -118.84866 41241 ft 537 kts 139°
2026-04-10 19:05 -19.23659 -118.79260 41241 ft 536 kts 139°
2026-04-10 19:06 -19.29089 -118.73659 41242 ft 536 kts 139°
2026-04-10 19:06 -19.34519 -118.68052 41243 ft 536 kts 139°
2026-04-10 19:07 -19.39944 -118.62445 41243 ft 536 kts 139°
2026-04-10 19:07 -19.45336 -118.56868 41244 ft 536 kts 139°
2026-04-10 19:08 -19.50768 -118.51242 41244 ft 536 kts 139°
2026-04-10 19:08 -19.56207 -118.45604 41245 ft 536 kts 139°
2026-04-10 19:09 -19.61626 -118.39981 41245 ft 536 kts 139°
2026-04-10 19:09 -19.66227 -118.35202 41246 ft 536 kts 139°
2026-04-10 19:10 -19.71822 -118.29387 41237 ft 536 kts 138°
2026-04-10 19:10 -19.77041 -118.23955 41238 ft 536 kts 138°
2026-04-10 19:11 -19.82338 -118.18438 41238 ft 536 kts 138°
2026-04-10 19:11 -19.86051 -118.14567 41239 ft 536 kts 138°
2026-04-10 19:12 -19.91826 -118.08541 41239 ft 536 kts 138°
2026-04-10 19:12 -19.97722 -118.02383 41240 ft 536 kts 138°
2026-04-10 19:13 -20.03103 -117.97043 41239 ft 535 kts 141°
2026-04-10 19:13 -20.07879 -117.92497 41241 ft 535 kts 141°
2026-04-10 19:14 -20.13890 -117.86766 41240 ft 535 kts 141°
2026-04-10 19:14 -20.19321 -117.81583 41241 ft 535 kts 141°
2026-04-10 19:15 -20.24752 -117.76394 41242 ft 535 kts 141°
2026-04-10 19:15 -20.30322 -117.71068 41242 ft 535 kts 141°
2026-04-10 19:16 -20.35689 -117.65930 41243 ft 535 kts 141°
2026-04-10 19:16 -20.41011 -117.60831 41243 ft 535 kts 141°
2026-04-10 19:17 -20.49506 -117.52681 41244 ft 535 kts 141°
2026-04-10 19:17 -20.55111 -117.47296 41245 ft 535 kts 141°
2026-04-10 19:18 -20.60764 -117.41860 41245 ft 535 kts 141°
2026-04-10 19:18 -20.66386 -117.36448 41246 ft 535 kts 141°
2026-04-10 19:19 -20.72051 -117.30990 41237 ft 535 kts 141°
2026-04-10 19:19 -20.77654 -117.25585 41238 ft 535 kts 141°
2026-04-10 19:20 -20.83297 -117.20136 41238 ft 535 kts 141°
2026-04-10 19:20 -20.88956 -117.14665 41239 ft 535 kts 141°
2026-04-10 19:21 -20.94552 -117.09250 41239 ft 535 kts 141°
2026-04-10 19:21 -21.00176 -117.03801 41240 ft 535 kts 141°
2026-04-10 19:22 -21.05795 -116.98351 41240 ft 535 kts 141°
2026-04-10 19:22 -21.11432 -116.92877 41240 ft 536 kts 141°
2026-04-10 19:23 -21.17051 -116.87419 41241 ft 536 kts 141°
2026-04-10 19:23 -21.22674 -116.81949 41241 ft 536 kts 141°
2026-04-10 19:24 -21.28297 -116.76473 41242 ft 536 kts 141°
2026-04-10 19:24 -21.33935 -116.70976 41244 ft 537 kts 141°
2026-04-10 19:25 -21.39551 -116.65495 41243 ft 536 kts 141°
2026-04-10 19:25 -21.45173 -116.60002 41243 ft 536 kts 141°
2026-04-10 19:26 -21.50815 -116.54483 41244 ft 537 kts 141°
2026-04-10 19:26 -21.56424 -116.48991 41245 ft 537 kts 141°
2026-04-10 19:27 -21.62023 -116.43502 41246 ft 536 kts 141°
2026-04-10 19:27 -21.67621 -116.38008 41246 ft 536 kts 141°
2026-04-10 19:28 -21.73225 -116.32502 41237 ft 536 kts 141°
2026-04-10 19:28 -21.78771 -116.27049 41236 ft 536 kts 141°
2026-04-10 19:29 -21.84345 -116.21559 41237 ft 537 kts 141°
2026-04-10 19:29 -21.89988 -116.15997 41238 ft 537 kts 141°
2026-04-10 19:30 -21.95596 -116.10463 41239 ft 537 kts 141°
2026-04-10 19:30 -22.01177 -116.04949 41240 ft 537 kts 141°
2026-04-10 19:31 -22.06788 -115.99400 41240 ft 537 kts 141°
2026-04-10 19:31 -22.12380 -115.93862 41239 ft 537 kts 141°
2026-04-10 19:32 -22.17980 -115.88313 41240 ft 537 kts 141°
2026-04-10 19:32 -22.23575 -115.82760 41241 ft 537 kts 141°
2026-04-10 19:33 -22.29177 -115.77194 41242 ft 537 kts 141°
2026-04-10 19:33 -22.34746 -115.71655 41244 ft 537 kts 141°
2026-04-10 19:34 -22.40218 -115.66206 41243 ft 536 kts 141°
2026-04-10 19:34 -22.45784 -115.60658 41244 ft 536 kts 141°
2026-04-10 19:35 -22.51354 -115.55099 41245 ft 537 kts 141°
2026-04-10 19:35 -22.56957 -115.49500 41245 ft 536 kts 141°
2026-04-10 19:36 -22.62532 -115.43923 41245 ft 536 kts 141°
2026-04-10 19:36 -22.68157 -115.38290 41246 ft 537 kts 141°
2026-04-10 19:37 -22.73715 -115.32717 41237 ft 537 kts 140°
2026-04-10 19:37 -22.79256 -115.27155 41236 ft 536 kts 140°
2026-04-10 19:38 -22.84816 -115.21568 41238 ft 536 kts 140°
2026-04-10 19:38 -22.90358 -115.15989 41238 ft 537 kts 141°
2026-04-10 19:39 -22.95873 -115.10433 41238 ft 537 kts 141°
2026-04-10 19:39 -23.01433 -115.04826 41239 ft 538 kts 141°
2026-04-10 19:40 -23.07065 -114.99142 41240 ft 540 kts 141°
2026-04-10 19:40 -23.12689 -114.93456 41241 ft 542 kts 141°
2026-04-10 19:41 -23.18278 -114.87799 41241 ft 542 kts 141°
2026-04-10 19:41 -23.23879 -114.82123 41241 ft 541 kts 141°
2026-04-10 19:42 -23.29490 -114.76430 41242 ft 541 kts 141°
2026-04-10 19:42 -23.35068 -114.70764 41244 ft 541 kts 141°
2026-04-10 19:43 -23.40662 -114.65075 41243 ft 541 kts 141°
2026-04-10 19:43 -23.46271 -114.59363 41245 ft 541 kts 141°
2026-04-10 19:44 -23.51879 -114.53646 41245 ft 541 kts 141°
2026-04-10 19:44 -23.57477 -114.47931 41246 ft 541 kts 141°
2026-04-10 19:45 -23.63064 -114.42221 41246 ft 541 kts 141°
2026-04-10 19:45 -23.68668 -114.36486 41247 ft 541 kts 141°
2026-04-10 19:46 -23.74279 -114.30740 41237 ft 542 kts 140°
2026-04-10 19:46 -23.79867 -114.25006 41237 ft 541 kts 140°
2026-04-10 19:47 -23.85447 -114.19275 41237 ft 541 kts 140°
2026-04-10 19:47 -23.91034 -114.13531 41237 ft 541 kts 140°
2026-04-10 19:48 -23.96623 -114.07775 41238 ft 542 kts 140°
2026-04-10 19:48 -24.02231 -114.01993 41240 ft 542 kts 140°
2026-04-10 19:49 -24.07812 -113.96232 41240 ft 541 kts 140°
2026-04-10 19:49 -24.13362 -113.90496 41241 ft 542 kts 140°
2026-04-10 19:50 -24.18941 -113.84722 41241 ft 542 kts 140°
2026-04-10 19:50 -24.24532 -113.78931 41241 ft 541 kts 140°
2026-04-10 19:51 -24.30126 -113.73126 41243 ft 542 kts 140°
2026-04-10 19:51 -24.35727 -113.67308 41243 ft 542 kts 140°
2026-04-10 19:52 -24.41296 -113.61517 41243 ft 542 kts 140°
2026-04-10 19:52 -24.46870 -113.55711 41245 ft 541 kts 140°
2026-04-10 19:53 -24.52444 -113.49898 41247 ft 542 kts 140°
2026-04-10 19:53 -24.57999 -113.44099 41246 ft 542 kts 140°
2026-04-10 19:54 -24.63552 -113.38292 41248 ft 542 kts 140°
2026-04-10 19:54 -24.69136 -113.32448 41238 ft 542 kts 140°
2026-04-10 19:55 -24.74677 -113.26640 41236 ft 542 kts 140°
2026-04-10 19:55 -24.80199 -113.20844 41237 ft 542 kts 140°
2026-04-10 19:56 -24.85746 -113.15015 41237 ft 542 kts 140°
2026-04-10 19:56 -24.91272 -113.09200 41239 ft 542 kts 140°
2026-04-10 19:57 -24.96823 -113.03350 41240 ft 542 kts 140°
2026-04-10 19:57 -25.02230 -112.97365 41241 ft 542 kts 137°
2026-04-10 19:58 -25.07482 -112.91184 41241 ft 540 kts 136°
2026-04-10 19:58 -25.12669 -112.85062 41241 ft 536 kts 136°
2026-04-10 19:59 -25.17872 -112.78912 41241 ft 536 kts 136°
2026-04-10 19:59 -25.23041 -112.72790 41243 ft 537 kts 136°
2026-04-10 20:00 -25.28240 -112.66627 41242 ft 537 kts 136°
2026-04-10 20:00 -25.33435 -112.60461 41243 ft 537 kts 136°
2026-04-10 20:01 -25.38592 -112.54333 41249 ft 537 kts 136°
2026-04-10 20:01 -25.43791 -112.48145 41264 ft 537 kts 136°
2026-04-10 20:02 -25.48953 -112.41993 41282 ft 537 kts 136°
2026-04-10 20:02 -25.54140 -112.35804 41301 ft 537 kts 136°
2026-04-10 20:03 -25.59290 -112.29650 41295 ft 538 kts 135°
2026-04-10 20:03 -25.64367 -112.23575 41288 ft 537 kts 135°
2026-04-10 20:04 -25.69538 -112.17378 41282 ft 537 kts 135°
2026-04-10 20:04 -25.74668 -112.11224 41278 ft 537 kts 135°
2026-04-10 20:05 -25.79841 -112.05009 41276 ft 537 kts 135°
2026-04-10 20:05 -25.85020 -111.98778 41276 ft 537 kts 135°
2026-04-10 20:06 -25.90172 -111.92570 41279 ft 537 kts 135°
2026-04-10 20:06 -25.94513 -111.87334 41282 ft 537 kts 135°
2026-04-10 20:07 -26.02566 -111.77602 41293 ft 537 kts 135°
2026-04-10 20:08 -26.07726 -111.71356 41303 ft 537 kts 135°
2026-04-10 20:08 -26.12878 -111.65111 41313 ft 537 kts 135°
2026-04-10 20:09 -26.18022 -111.58866 41324 ft 538 kts 135°
2026-04-10 20:09 -26.23192 -111.52582 40727 ft 544 kts 135°
2026-04-10 20:09 -26.25762 -111.49452 40108 ft 532 kts 135°
2026-04-10 20:10 -26.28275 -111.46391 39519 ft 518 kts 135°
2026-04-10 20:10 -26.30734 -111.43394 38919 ft 508 kts 135°
2026-04-10 20:10 -26.33148 -111.40452 38332 ft 502 kts 135°
2026-04-10 20:10 -26.35552 -111.37519 37750 ft 499 kts 135°
2026-04-10 20:11 -26.37939 -111.34604 37171 ft 497 kts 135°
2026-04-10 20:11 -26.40302 -111.31717 36577 ft 493 kts 135°
2026-04-10 20:11 -26.42647 -111.28850 35980 ft 487 kts 135°
2026-04-10 20:11 -26.44965 -111.26013 35380 ft 482 kts 135°
2026-04-10 20:12 -26.47268 -111.23194 34779 ft 477 kts 135°
2026-04-10 20:12 -26.49528 -111.20425 34185 ft 473 kts 135°
2026-04-10 20:12 -26.51776 -111.17669 33593 ft 469 kts 135°
2026-04-10 20:12 -26.54013 -111.14922 32997 ft 463 kts 135°
2026-04-10 20:13 -26.56231 -111.12200 32398 ft 456 kts 136°
2026-04-10 20:13 -26.58379 -111.09562 31805 ft 450 kts 136°
2026-04-10 20:13 -26.60517 -111.06935 31210 ft 445 kts 136°
2026-04-10 20:13 -26.62642 -111.04322 30615 ft 441 kts 136°
2026-04-10 20:14 -26.64731 -111.01752 30026 ft 437 kts 136°
2026-04-10 20:14 -26.66788 -110.99221 29441 ft 433 kts 137°
2026-04-10 20:14 -26.68824 -110.96712 28855 ft 428 kts 137°
2026-04-10 20:14 -26.70858 -110.94205 28262 ft 423 kts 137°
2026-04-10 20:15 -26.72852 -110.91747 27674 ft 418 kts 137°
2026-04-10 20:15 -26.74743 -110.89258 27050 ft 419 kts 127°
2026-04-10 20:15 -26.75885 -110.86200 26512 ft 421 kts 111°
2026-04-10 20:15 -26.76744 -110.83034 25926 ft 416 kts 111°
2026-04-10 20:16 -26.77569 -110.79905 25341 ft 410 kts 110°
2026-04-10 20:16 -26.78374 -110.76824 24754 ft 404 kts 111°
2026-04-10 20:16 -26.79171 -110.73768 24161 ft 397 kts 111°
2026-04-10 20:16 -26.79944 -110.70799 23576 ft 390 kts 111°
2026-04-10 20:17 -26.80717 -110.67830 22980 ft 384 kts 111°
2026-04-10 20:17 -26.81476 -110.64909 22386 ft 378 kts 111°
2026-04-10 20:17 -26.82220 -110.62046 21794 ft 373 kts 111°
2026-04-10 20:17 -26.82949 -110.59235 21205 ft 367 kts 110°
2026-04-10 20:18 -26.83674 -110.56440 20609 ft 362 kts 110°
2026-04-10 20:18 -26.84389 -110.53681 20013 ft 357 kts 110°
2026-04-10 20:18 -26.85086 -110.50989 19423 ft 352 kts 110°
2026-04-10 20:18 -26.85771 -110.48337 18831 ft 345 kts 110°
2026-04-10 20:19 -26.86440 -110.45746 18234 ft 337 kts 110°
2026-04-10 20:19 -26.87100 -110.43190 17634 ft 331 kts 109°
2026-04-10 20:19 -26.87746 -110.40685 17040 ft 327 kts 109°
2026-04-10 20:19 -26.88380 -110.38228 16453 ft 321 kts 109°
2026-04-10 20:20 -26.89004 -110.35801 15847 ft 312 kts 109°
2026-04-10 20:20 -26.89604 -110.33471 15252 ft 305 kts 108°
2026-04-10 20:20 -26.90199 -110.31155 14655 ft 301 kts 108°
2026-04-10 20:20 -26.90782 -110.28889 14069 ft 299 kts 108°
2026-04-10 20:21 -26.91363 -110.26627 13485 ft 298 kts 107°
2026-04-10 20:21 -26.91942 -110.24367 12900 ft 297 kts 107°
2026-04-10 20:21 -26.92517 -110.22123 12316 ft 296 kts 107°
2026-04-10 20:21 -26.93093 -110.19874 11726 ft 294 kts 107°
2026-04-10 20:22 -26.93653 -110.17679 11146 ft 291 kts 107°
2026-04-10 20:22 -26.94217 -110.15472 10556 ft 288 kts 107°
2026-04-10 20:22 -26.94771 -110.13304 9970 ft 285 kts 107°
2026-04-10 20:22 -26.95318 -110.11161 9379 ft 279 kts 107°
2026-04-10 20:23 -26.95847 -110.09086 8791 ft 272 kts 107°
2026-04-10 20:23 -26.96359 -110.07079 8201 ft 257 kts 107°
2026-04-10 20:23 -26.96844 -110.05176 7803 ft 246 kts 107°
2026-04-10 20:23 -26.97311 -110.03341 7491 ft 240 kts 106°
2026-04-10 20:24 -26.97770 -110.01541 7088 ft 239 kts 106°
2026-04-10 20:24 -26.98211 -109.99807 6843 ft 222 kts 106°
2026-04-10 20:24 -26.98631 -109.98153 6416 ft 214 kts 106°
2026-04-10 20:24 -26.99036 -109.96561 5998 ft 207 kts 106°
2026-04-10 20:25 -26.99428 -109.95020 5584 ft 202 kts 106°
2026-04-10 20:25 -26.99816 -109.93490 5175 ft 197 kts 106°
2026-04-10 20:25 -27.00172 -109.92087 4955 ft 175 kts 106°
2026-04-10 20:25 -27.00492 -109.90829 4663 ft 160 kts 106°
2026-04-10 20:26 -27.00793 -109.89643 4409 ft 156 kts 106°
2026-04-10 20:26 -27.01095 -109.88452 4191 ft 160 kts 106°
2026-04-10 20:26 -27.01405 -109.87226 3978 ft 164 kts 106°
2026-04-10 20:26 -27.01721 -109.85978 3754 ft 164 kts 106°
2026-04-10 20:27 -27.02037 -109.84730 3523 ft 163 kts 106°
2026-04-10 20:27 -27.02349 -109.83499 3293 ft 162 kts 106°
2026-04-10 20:27 -27.02657 -109.82281 3167 ft 159 kts 106°
2026-04-10 20:27 -27.02960 -109.81081 3068 ft 160 kts 106°
2026-04-10 20:28 -27.03271 -109.79854 2970 ft 161 kts 106°
2026-04-10 20:28 -27.03582 -109.78622 2868 ft 161 kts 106°
2026-04-10 20:28 -27.03888 -109.77408 2766 ft 161 kts 106°
2026-04-10 20:28 -27.04197 -109.76185 2662 ft 160 kts 106°
2026-04-10 20:29 -27.04506 -109.74959 2558 ft 160 kts 106°
2026-04-10 20:29 -27.04815 -109.73736 2454 ft 160 kts 106°
2026-04-10 20:29 -27.05121 -109.72522 2351 ft 160 kts 106°
2026-04-10 20:29 -27.05427 -109.71310 2270 ft 159 kts 106°
2026-04-10 20:30 -27.05731 -109.70104 2193 ft 159 kts 106°
2026-04-10 20:30 -27.06037 -109.68887 2116 ft 159 kts 106°
2026-04-10 20:30 -27.06343 -109.67671 2071 ft 158 kts 106°
2026-04-10 20:30 -27.06647 -109.66465 2020 ft 159 kts 106°
2026-04-10 20:31 -27.06950 -109.65262 2021 ft 158 kts 106°
2026-04-10 20:31 -27.07239 -109.64110 1989 ft 142 kts 106°
2026-04-10 20:31 -27.07499 -109.63074 1939 ft 133 kts 106°
2026-04-10 20:31 -27.07555 -109.62024 1916 ft 134 kts 102°
2026-04-10 20:32 -27.07810 -109.60988 1941 ft 137 kts 110°
2026-04-10 20:32 -27.08181 -109.59975 1943 ft 139 kts 116°
2026-04-10 20:32 -27.08703 -109.59050 1933 ft 139 kts 123°
2026-04-10 20:32 -27.09242 -109.58155 1946 ft 137 kts 120°
2026-04-10 20:33 -27.09677 -109.57215 1919 ft 130 kts 112°
2026-04-10 20:33 -27.09988 -109.56255 1764 ft 129 kts 110°
2026-04-10 20:33 -27.10345 -109.55321 1566 ft 127 kts 114°
2026-04-10 20:33 -27.10727 -109.54436 1448 ft 124 kts 120°
2026-04-10 20:34 -27.11158 -109.53578 1355 ft 124 kts 118°
2026-04-10 20:34 -27.11577 -109.52703 1283 ft 123 kts 116°
2026-04-10 20:34 -27.11985 -109.51846 1310 ft 129 kts 117°
2026-04-10 20:34 -27.12429 -109.50947 1166 ft 128 kts 117°
2026-04-10 20:35 -27.12838 -109.50066 1084 ft 126 kts 117°
2026-04-10 20:35 -27.13245 -109.49168 978 ft 125 kts 116°
2026-04-10 20:35 -27.13669 -109.48294 862 ft 125 kts 117°
2026-04-10 20:35 -27.14076 -109.47408 774 ft 123 kts 117°
2026-04-10 20:36 -27.14483 -109.46523 631 ft 127 kts 116°
2026-04-10 20:36 -27.14887 -109.45635 512 ft 124 kts 116°
2026-04-10 20:36 -27.15287 -109.44771 406 ft 119 kts 116°
2026-04-10 20:36 -27.15687 -109.43935 276 ft 121 kts 117°
2026-04-10 20:37 -27.16041 -109.43146 170 ft 103 kts 115°
2026-04-10 20:37 -27.16265 -109.42631 188 ft 23 kts 117°
2026-04-10 20:37 -27.16279 -109.42600 190 ft 2 kts 117°
2026-04-10 20:37 -27.16294 -109.42607 191 ft 8 kts 254°
2026-04-10 20:38 -27.16229 -109.42738 180 ft 21 kts 284°
2026-04-10 20:38 -27.16287 -109.42875 174 ft 16 kts 266°
2026-04-10 20:38 -27.16294 -109.42912 173 ft 0 kts 257°